Location: Newark
(20.5800°N, 87.1197°W)
Time: 06:37:39
(UTC+00:00)

Tiangong 2 - Visible Passes

Search period start: 18 July 2019 00:00
Search period end: 28 July 2019 00:00
Orbit: 378 x 386 km, 42.8° (Epoch: 17 July)

Date Brightness Start Highest point End Pass type
(mag) Time Alt. Az. Time Alt. Az. Time Alt. Az.
24 Jul 3.5 02:14:03 10° NNW 02:15:26 17° N 02:15:26 17° N visible
25 Jul 4.5 02:49:38 10° NW 02:49:59 13° NW 02:49:59 13° NW visible
26 Jul 1.7 01:49:24 10° NW 01:52:23 41° NE 01:52:27 40° NE visible
27 Jul 3.1 00:49:39 10° NNW 00:51:54 18° NE 00:54:10 10° E visible
27 Jul 3.6 02:25:53 10° WNW 02:27:09 19° W 02:27:09 19° W visible
